Time,TemperatureF,DewpointF,PressureIn,WindDirection,WindDirectionDegrees,WindSpeedMPH,WindSpeedGustMPH,Humidity,HourlyPrecipIn,Conditions,Clouds,dailyrainin,SoftwareType,DateUTC
2013-05-21 00:01:00,52.3,36.6,30.03,South,173,0.0,0.0,55,0.00,,,0.00,vanprod-2.5-rc3,2013-05-21 06:01:00,
2013-05-21 00:06:00,52.3,36.6,30.03,South,173,0.0,0.0,55,0.00,,,0.00,vanprod-2.5-rc3,2013-05-21 06:06:00,
2013-05-21 00:11:00,52.2,37.0,30.06,South,171,0.0,0.0,56,0.00,,,0.00,vanprod-2.5-rc3,2013-05-21 06:11:00,
2013-05-21 00:16:00,52.0,35.9,30.04,South,171,0.0,0.0,54,0.00,,,0.00,vanprod-2.5-rc3,2013-05-21 06:16:00,
2013-05-21 00:21:00,51.8,36.6,30.04,ENE,61,0.0,0.0,56,0.00,,,0.00,vanprod-2.5-rc3,2013-05-21 06:21:00,
2013-05-21 00:26:00,51.6,36.4,30.04,ENE,61,0.0,0.0,56,0.00,,,0.00,vanprod-2.5-rc3,2013-05-21 06:26:00,
2013-05-21 00:31:00,51.4,36.2,30.05,ENE,61,0.0,0.0,56,0.00,,,0.00,vanprod-2.5-rc3,2013-05-21 06:31:00,
2013-05-21 00:36:00,51.2,36.1,30.04,ENE,67,0.0,0.0,56,0.00,,,0.00,vanprod-2.5-rc3,2013-05-21 06:36:00,
2013-05-21 00:41:00,51.0,35.9,30.04,ENE,68,0.0,0.0,56,0.00,,,0.00,vanprod-2.5-rc3,2013-05-21 06:41:00,
2013-05-21 00:46:00,50.9,36.2,30.04,ENE,75,0.0,0.0,57,0.00,,,0.00,vanprod-2.5-rc3,2013-05-21 06:46:00,
2013-05-21 00:51:00,50.7,36.0,30.04,East,89,0.0,0.0,57,0.00,,,0.00,vanprod-2.5-rc3,2013-05-21 06:51:00,
2013-05-21 00:56:00,50.6,35.5,30.04,East,101,0.0,0.0,56,0.00,,,0.00,vanprod-2.5-rc3,2013-05-21 06:56:00,
2013-05-21 01:01:00,50.6,35.9,30.04,East,101,0.0,0.0,57,0.00,,,0.00,vanprod-2.5-rc3,2013-05-21 07:01:00,
2013-05-21 01:06:00,50.6,35.5,30.04,East,101,0.0,0.0,56,0.00,,,0.00,vanprod-2.5-rc3,2013-05-21 07:06:00,
2013-05-21 01:11:00,50.6,35.5,30.04,East,96,0.0,0.0,56,0.00,,,0.00,vanprod-2.5-rc3,2013-05-21 07:11:00,
2013-05-21 01:16:00,50.6,35.5,30.04,East,95,0.0,0.0,56,0.00,,,0.00,vanprod-2.5-rc3,2013-05-21 07:16:00,
2013-05-21 01:21:00,50.5,35.9,30.04,East,90,0.0,0.0,57,0.00,,,0.00,vanprod-2.5-rc3,2013-05-21 07:21:00,
2013-05-21 01:26:00,50.5,35.9,30.04,East,88,0.0,0.0,57,0.00,,,0.00,vanprod-2.5-rc3,2013-05-21 07:26:00,
2013-05-21 01:31:00,50.5,35.9,30.04,East,79,0.0,0.0,57,0.00,,,0.00,vanprod-2.5-rc3,2013-05-21 07:31:00,
2013-05-21 01:36:00,50.5,36.7,30.04,East,82,0.0,0.0,59,0.00,,,0.00,vanprod-2.5-rc3,2013-05-21 07:36:00,
2013-05-21 01:41:00,50.5,36.3,30.04,East,82,0.0,0.0,58,0.00,,,0.00,vanprod-2.5-rc3,2013-05-21 07:41:00,
2013-05-21 01:46:00,50.4,36.2,30.04,East,88,0.0,0.0,58,0.00,,,0.00,vanprod-2.5-rc3,2013-05-21 07:46:00,
2013-05-21 01:51:00,50.2,36.0,30.03,East,95,0.0,0.0,58,0.00,,,0.00,vanprod-2.5-rc3,2013-05-21 07:51:00,
2013-05-21 01:56:00,50.1,35.5,30.04,East,100,0.0,0.0,57,0.00,,,0.00,vanprod-2.5-rc3,2013-05-21 07:56:00,
2013-05-21 02:01:00,50.1,35.5,30.02,East,97,0.0,0.0,57,0.00,,,0.00,vanprod-2.5-rc3,2013-05-21 08:01:00,
2013-05-21 02:06:00,50.1,35.9,30.04,ESE,103,0.0,0.0,58,0.00,,,0.00,vanprod-2.5-rc3,2013-05-21 08:06:00,
2013-05-21 02:11:00,50.1,35.9,30.04,East,98,0.0,0.0,58,0.00,,,0.00,vanprod-2.5-rc3,2013-05-21 08:11:00,
2013-05-21 02:16:00,50.1,35.9,30.04,East,97,0.0,0.0,58,0.00,,,0.00,vanprod-2.5-rc3,2013-05-21 08:16:00,
2013-05-21 02:21:00,50.1,35.9,30.04,East,94,0.0,0.0,58,0.00,,,0.00,vanprod-2.5-rc3,2013-05-21 08:21:00,
2013-05-21 02:26:00,50.0,35.8,30.04,East,94,0.0,0.0,58,0.00,,,0.00,vanprod-2.5-rc3,2013-05-21 08:26:00,
2013-05-21 02:31:00,50.0,35.8,30.04,East,94,0.0,0.0,58,0.00,,,0.00,vanprod-2.5-rc3,2013-05-21 08:31:00,
2013-05-21 02:36:00,49.9,36.2,30.04,East,95,0.0,0.0,59,0.00,,,0.00,vanprod-2.5-rc3,2013-05-21 08:36:00,
2013-05-21 02:41:00,49.8,35.6,30.02,ESE,105,0.0,0.0,58,0.00,,,0.00,vanprod-2.5-rc3,2013-05-21 08:41:00,
2013-05-21 02:46:00,49.8,36.1,30.04,ESE,102,0.0,0.0,59,0.00,,,0.00,vanprod-2.5-rc3,2013-05-21 08:46:00,
2013-05-21 02:51:00,49.8,35.6,30.02,ESE,103,0.0,0.0,58,0.00,,,0.00,vanprod-2.5-rc3,2013-05-21 08:51:00,
2013-05-21 02:56:00,49.9,35.7,30.02,ESE,103,0.0,0.0,58,0.00,,,0.00,vanprod-2.5-rc3,2013-05-21 08:56:00,
2013-05-21 03:01:00,49.9,35.7,30.03,ESE,103,0.0,0.0,58,0.00,,,0.00,vanprod-2.5-rc3,2013-05-21 09:01:00,
2013-05-21 03:06:00,49.5,36.2,30.03,East,96,0.0,0.0,60,0.00,,,0.00,vanprod-2.5-rc3,2013-05-21 09:06:00,
2013-05-21 03:11:00,49.0,35.7,30.03,East,97,0.0,0.0,60,0.00,,,0.00,vanprod-2.5-rc3,2013-05-21 09:11:00,
2013-05-21 03:16:00,48.5,35.7,30.03,East,97,0.0,0.0,61,0.00,,,0.00,vanprod-2.5-rc3,2013-05-21 09:16:00,
2013-05-21 03:21:00,48.0,35.6,30.02,East,97,0.0,0.0,62,0.00,,,0.00,vanprod-2.5-rc3,2013-05-21 09:21:00,
2013-05-21 03:26:00,47.8,35.0,30.01,ESE,109,0.0,0.0,61,0.00,,,0.00,vanprod-2.5-rc3,2013-05-21 09:26:00,
2013-05-21 03:31:00,47.8,35.0,30.02,ESE,108,0.0,0.0,61,0.00,,,0.00,vanprod-2.5-rc3,2013-05-21 09:31:00,
2013-05-21 03:36:00,47.5,34.7,30.04,ENE,65,0.0,0.0,61,0.00,,,0.00,vanprod-2.5-rc3,2013-05-21 09:36:00,
2013-05-21 03:41:00,47.1,34.8,30.02,ENE,59,0.0,0.0,62,0.00,,,0.00,vanprod-2.5-rc3,2013-05-21 09:41:00,
2013-05-21 03:46:00,46.7,34.8,30.01,ENE,61,0.0,0.0,63,0.00,,,0.00,vanprod-2.5-rc3,2013-05-21 09:46:00,
2013-05-21 03:51:00,46.2,34.3,30.02,ENE,74,0.0,0.0,63,0.00,,,0.00,vanprod-2.5-rc3,2013-05-21 09:51:00,
2013-05-21 03:56:00,45.8,34.3,30.02,ENE,70,0.0,0.0,64,0.00,,,0.00,vanprod-2.5-rc3,2013-05-21 09:56:00,
2013-05-21 04:01:00,45.3,33.9,30.04,East,90,0.0,0.0,64,0.00,,,0.00,vanprod-2.5-rc3,2013-05-21 10:01:00,
2013-05-21 04:06:00,45.0,33.6,30.04,East,91,0.0,0.0,64,0.00,,,0.00,vanprod-2.5-rc3,2013-05-21 10:06:00,
2013-05-21 04:11:00,45.0,34.0,30.04,ESE,104,0.0,0.0,65,0.00,,,0.00,vanprod-2.5-rc3,2013-05-21 10:11:00,
2013-05-21 04:16:00,45.0,34.0,30.04,ESE,111,0.0,0.0,65,0.00,,,0.00,vanprod-2.5-rc3,2013-05-21 10:16:00,
2013-05-21 04:21:00,45.1,33.7,30.04,ESE,113,0.0,0.0,64,0.00,,,0.00,vanprod-2.5-rc3,2013-05-21 10:21:00,
2013-05-21 04:26:00,45.1,33.7,30.04,ESE,113,0.0,0.0,64,0.00,,,0.00,vanprod-2.5-rc3,2013-05-21 10:26:00,
2013-05-21 04:31:00,45.0,34.0,30.04,ESE,108,0.0,0.0,65,0.00,,,0.00,vanprod-2.5-rc3,2013-05-21 10:31:00,
2013-05-21 04:36:00,44.8,33.8,30.04,ESE,108,0.0,0.0,65,0.00,,,0.00,vanprod-2.5-rc3,2013-05-21 10:36:00,
2013-05-21 04:41:00,44.5,33.9,30.04,ESE,106,0.0,0.0,66,0.00,,,0.00,vanprod-2.5-rc3,2013-05-21 10:41:00,
2013-05-21 04:46:00,44.2,33.6,30.03,ESE,107,0.0,0.0,66,0.00,,,0.00,vanprod-2.5-rc3,2013-05-21 10:46:00,
2013-05-21 04:51:00,44.4,33.8,30.03,ESE,118,0.0,0.0,66,0.00,,,0.00,vanprod-2.5-rc3,2013-05-21 10:51:00,
2013-05-21 04:56:00,44.9,34.2,30.04,ESE,119,0.0,0.0,66,0.00,,,0.00,vanprod-2.5-rc3,2013-05-21 10:56:00,
2013-05-21 05:01:00,45.0,34.0,30.03,ESE,119,0.0,0.0,65,0.00,,,0.00,vanprod-2.5-rc3,2013-05-21 11:01:00,
2013-05-21 05:06:00,45.0,34.3,30.03,ESE,119,0.0,0.0,66,0.00,,,0.00,vanprod-2.5-rc3,2013-05-21 11:06:00,
2013-05-21 05:11:00,44.8,34.9,30.03,ESE,119,0.0,0.0,68,0.00,,,0.00,vanprod-2.5-rc3,2013-05-21 11:11:00,
2013-05-21 05:16:00,44.7,34.8,30.04,ESE,119,0.0,0.0,68,0.00,,,0.00,vanprod-2.5-rc3,2013-05-21 11:16:00,
2013-05-21 05:21:00,45.0,35.1,30.04,SSE,166,0.0,0.0,68,0.00,,,0.00,vanprod-2.5-rc3,2013-05-21 11:21:00,
2013-05-21 05:26:00,45.4,35.5,30.04,South,173,0.0,0.0,68,0.00,,,0.00,vanprod-2.5-rc3,2013-05-21 11:26:00,
2013-05-21 05:31:00,45.5,35.2,30.02,South,173,0.0,0.0,67,0.00,,,0.00,vanprod-2.5-rc3,2013-05-21 11:31:00,
2013-05-21 05:36:00,45.5,35.6,30.03,South,170,0.0,0.0,68,0.00,,,0.00,vanprod-2.5-rc3,2013-05-21 11:36:00,
2013-05-21 05:41:00,45.5,35.6,30.02,SSE,168,0.0,0.0,68,0.00,,,0.00,vanprod-2.5-rc3,2013-05-21 11:41:00,
2013-05-21 05:46:00,45.5,35.6,30.02,SSE,163,0.0,0.0,68,0.00,,,0.00,vanprod-2.5-rc3,2013-05-21 11:46:00,
2013-05-21 05:51:00,45.6,36.0,30.05,SE,145,0.0,0.0,69,0.00,,,0.00,vanprod-2.5-rc3,2013-05-21 11:51:00,
2013-05-21 05:56:00,45.9,36.3,30.05,ESE,103,0.0,0.0,69,0.00,,,0.00,vanprod-2.5-rc3,2013-05-21 11:56:00,
2013-05-21 06:01:00,46.2,36.6,30.04,ESE,103,0.0,0.0,69,0.00,,,0.00,vanprod-2.5-rc3,2013-05-21 12:01:00,
2013-05-21 06:06:00,46.3,36.3,30.04,ESE,103,0.0,0.0,68,0.00,,,0.00,vanprod-2.5-rc3,2013-05-21 12:06:00,
2013-05-21 06:11:00,46.3,36.7,30.04,ESE,103,0.0,0.0,69,0.00,,,0.00,vanprod-2.5-rc3,2013-05-21 12:11:00,
2013-05-21 06:16:00,46.2,36.6,30.04,ESE,103,0.0,0.0,69,0.00,,,0.00,vanprod-2.5-rc3,2013-05-21 12:16:00,
2013-05-21 06:21:00,46.2,36.6,30.04,ESE,103,0.0,0.0,69,0.00,,,0.00,vanprod-2.5-rc3,2013-05-21 12:21:00,
2013-05-21 06:26:00,46.2,37.0,30.04,East,89,0.0,0.0,70,0.00,,,0.00,vanprod-2.5-rc3,2013-05-21 12:26:00,
2013-05-21 06:31:00,46.1,36.9,30.04,East,82,0.0,0.0,70,0.00,,,0.00,vanprod-2.5-rc3,2013-05-21 12:31:00,
2013-05-21 06:36:00,46.1,36.9,30.04,ENE,76,0.0,0.0,70,0.00,,,0.00,vanprod-2.5-rc3,2013-05-21 12:36:00,
2013-05-21 06:41:00,46.1,37.2,30.04,ENE,76,0.0,0.0,71,0.00,,,0.00,vanprod-2.5-rc3,2013-05-21 12:41:00,
2013-05-21 06:46:00,46.1,37.6,30.04,ENE,76,0.0,0.0,72,0.00,,,0.00,vanprod-2.5-rc3,2013-05-21 12:46:00,
2013-05-21 06:51:00,46.2,37.7,30.05,ENE,61,0.0,0.0,72,0.00,,,0.00,vanprod-2.5-rc3,2013-05-21 12:51:00,
2013-05-21 06:56:00,46.3,38.1,30.05,NNE,33,1.0,2.0,73,0.00,,,0.00,vanprod-2.5-rc3,2013-05-21 12:56:00,
2013-05-21 07:01:00,46.2,37.7,30.06,ENE,57,0.0,0.0,72,0.00,,,0.00,vanprod-2.5-rc3,2013-05-21 13:01:00,
2013-05-21 07:06:00,46.2,37.7,30.06,ENE,59,0.0,0.0,72,0.00,,,0.00,vanprod-2.5-rc3,2013-05-21 13:06:00,
2013-05-21 07:11:00,46.4,38.2,30.07,ENE,60,0.0,0.0,73,0.00,,,0.00,vanprod-2.5-rc3,2013-05-21 13:11:00,
2013-05-21 07:16:00,46.6,37.4,30.05,ENE,67,0.0,0.0,70,0.00,,,0.00,vanprod-2.5-rc3,2013-05-21 13:16:00,
2013-05-21 07:21:00,46.8,37.2,30.05,ENE,67,0.0,0.0,69,0.00,,,0.00,vanprod-2.5-rc3,2013-05-21 13:21:00,
2013-05-21 07:26:00,46.9,36.9,30.05,ENE,67,0.0,0.0,68,0.00,,,0.00,vanprod-2.5-rc3,2013-05-21 13:26:00,
2013-05-21 07:31:00,47.0,37.0,30.05,ENE,67,0.0,0.0,68,0.00,,,0.00,vanprod-2.5-rc3,2013-05-21 13:31:00,
2013-05-21 07:36:00,47.2,36.8,30.05,ENE,67,0.0,0.0,67,0.00,,,0.00,vanprod-2.5-rc3,2013-05-21 13:36:00,
2013-05-21 07:41:00,47.4,36.6,30.05,ENE,68,0.0,0.0,66,0.00,,,0.00,vanprod-2.5-rc3,2013-05-21 13:41:00,
2013-05-21 07:46:00,47.6,37.6,30.05,ENE,66,0.0,0.0,68,0.00,,,0.00,vanprod-2.5-rc3,2013-05-21 13:46:00,
2013-05-21 07:51:00,47.9,38.2,30.05,NE,43,0.0,0.0,69,0.00,,,0.00,vanprod-2.5-rc3,2013-05-21 13:51:00,
2013-05-21 07:56:00,48.0,38.3,30.05,NE,44,0.0,0.0,69,0.00,,,0.00,vanprod-2.5-rc3,2013-05-21 13:56:00,
2013-05-21 08:01:00,48.3,38.2,30.06,NE,52,0.0,0.0,68,0.00,,,0.00,vanprod-2.5-rc3,2013-05-21 14:01:00,
2013-05-21 08:06:00,48.9,39.6,30.05,ENE,72,0.0,0.0,70,0.00,,,0.00,vanprod-2.5-rc3,2013-05-21 14:06:00,
2013-05-21 08:11:00,49.5,38.6,30.05,ENE,61,0.0,0.0,66,0.00,,,0.00,vanprod-2.5-rc3,2013-05-21 14:11:00,
2013-05-21 08:16:00,50.1,38.8,30.05,NE,56,0.0,0.0,65,0.00,,,0.00,vanprod-2.5-rc3,2013-05-21 14:16:00,
2013-05-21 08:21:00,50.5,39.2,30.06,ENE,63,0.0,0.0,65,0.00,,,0.00,vanprod-2.5-rc3,2013-05-21 14:21:00,
2013-05-21 08:26:00,50.9,39.6,30.06,ENE,61,0.0,0.0,65,0.00,,,0.00,vanprod-2.5-rc3,2013-05-21 14:26:00,
2013-05-21 08:31:00,51.3,39.6,30.06,NE,39,0.0,0.0,64,0.00,,,0.00,vanprod-2.5-rc3,2013-05-21 14:31:00,
2013-05-21 08:36:00,51.5,39.3,30.06,NE,36,1.0,0.0,63,0.00,,,0.00,vanprod-2.5-rc3,2013-05-21 14:36:00,
2013-05-21 08:41:00,51.4,39.6,30.06,NNE,26,2.0,6.0,64,0.00,,,0.00,vanprod-2.5-rc3,2013-05-21 14:41:00,
2013-05-21 08:46:00,51.4,39.6,30.06,NE,45,1.0,0.0,64,0.00,,,0.00,vanprod-2.5-rc3,2013-05-21 14:46:00,
2013-05-21 08:51:00,51.5,39.7,30.06,ENE,63,0.0,0.0,64,0.00,,,0.00,vanprod-2.5-rc3,2013-05-21 14:51:00,
2013-05-21 08:56:00,51.9,40.5,30.06,NE,35,0.0,0.0,65,0.00,,,0.00,vanprod-2.5-rc3,2013-05-21 14:56:00,
2013-05-21 09:01:00,52.1,39.5,30.06,NNE,24,4.0,0.0,62,0.00,,,0.00,vanprod-2.5-rc3,2013-05-21 15:01:00,
2013-05-21 09:06:00,52.2,39.6,30.06,NE,50,0.0,1.0,62,0.00,,,0.00,vanprod-2.5-rc3,2013-05-21 15:06:00,
2013-05-21 09:11:00,52.8,39.3,30.06,ENE,67,0.0,0.0,60,0.00,,,0.00,vanprod-2.5-rc3,2013-05-21 15:11:00,
2013-05-21 09:16:00,53.4,39.4,30.06,NNE,12,1.0,4.0,59,0.00,,,0.00,vanprod-2.5-rc3,2013-05-21 15:16:00,
2013-05-21 09:21:00,54.1,40.1,30.04,NE,53,1.0,2.0,59,0.00,,,0.00,vanprod-2.5-rc3,2013-05-21 15:21:00,
2013-05-21 09:26:00,54.3,39.0,30.05,NE,34,3.0,3.0,56,0.00,,,0.00,vanprod-2.5-rc3,2013-05-21 15:26:00,
2013-05-21 09:31:00,54.6,38.8,30.05,North,359,1.0,1.0,55,0.00,,,0.00,vanprod-2.5-rc3,2013-05-21 15:31:00,
2013-05-21 09:36:00,55.1,39.2,30.04,NNE,20,1.0,3.0,55,0.00,,,0.00,vanprod-2.5-rc3,2013-05-21 15:36:00,
2013-05-21 09:41:00,55.6,38.3,30.05,NNE,20,2.0,7.0,52,0.00,,,0.00,vanprod-2.5-rc3,2013-05-21 15:41:00,
2013-05-21 09:46:00,55.8,37.5,30.05,NNE,32,0.0,2.0,50,0.00,,,0.00,vanprod-2.5-rc3,2013-05-21 15:46:00,
2013-05-21 09:51:00,56.2,37.8,30.05,North,352,1.0,0.0,50,0.00,,,0.00,vanprod-2.5-rc3,2013-05-21 15:51:00,
2013-05-21 09:56:00,56.8,37.9,30.05,NNE,27,1.0,2.0,49,0.00,,,0.00,vanprod-2.5-rc3,2013-05-21 15:56:00,
2013-05-21 10:01:00,57.2,38.2,30.04,NNE,22,3.0,5.0,49,0.00,,,0.00,vanprod-2.5-rc3,2013-05-21 16:01:00,
2013-05-21 10:06:00,57.7,37.6,30.04,NE,52,4.0,4.0,47,0.00,,,0.00,vanprod-2.5-rc3,2013-05-21 16:06:00,
2013-05-21 10:11:00,58.5,37.8,30.03,ENE,59,2.0,2.0,46,0.00,,,0.00,vanprod-2.5-rc3,2013-05-21 16:11:00,
2013-05-21 10:16:00,58.6,36.8,30.02,NE,55,1.0,0.0,44,0.00,,,0.00,vanprod-2.5-rc3,2013-05-21 16:16:00,
2013-05-21 10:21:00,58.5,36.7,30.02,NNE,18,0.0,3.0,44,0.00,,,0.00,vanprod-2.5-rc3,2013-05-21 16:21:00,
2013-05-21 10:26:00,59.0,38.3,30.02,NE,47,0.0,1.0,46,0.00,,,0.00,vanprod-2.5-rc3,2013-05-21 16:26:00,
2013-05-21 10:31:00,59.5,37.0,30.02,NNE,31,4.0,4.0,43,0.00,,,0.00,vanprod-2.5-rc3,2013-05-21 16:31:00,
2013-05-21 10:36:00,59.7,37.8,30.02,NW,319,2.0,4.0,44,0.00,,,0.00,vanprod-2.5-rc3,2013-05-21 16:36:00,
2013-05-21 10:41:00,59.8,37.9,30.02,NW,304,3.0,3.0,44,0.00,,,0.00,vanprod-2.5-rc3,2013-05-21 16:41:00,
2013-05-21 10:46:00,60.0,38.0,30.02,NNW,341,3.0,6.0,44,0.00,,,0.00,vanprod-2.5-rc3,2013-05-21 16:46:00,
2013-05-21 10:51:00,60.6,38.0,30.02,NW,317,1.0,5.0,43,0.00,,,0.00,vanprod-2.5-rc3,2013-05-21 16:51:00,
2013-05-21 10:56:00,60.9,37.1,30.02,NW,316,3.0,3.0,41,0.00,,,0.00,vanprod-2.5-rc3,2013-05-21 16:56:00,
2013-05-21 11:01:00,61.0,37.2,30.00,West,279,4.0,5.0,41,0.00,,,0.00,vanprod-2.5-rc3,2013-05-21 17:01:00,
2013-05-21 11:06:00,61.3,35.5,30.01,West,278,1.0,1.0,38,0.00,,,0.00,vanprod-2.5-rc3,2013-05-21 17:06:00,
2013-05-21 11:11:00,61.5,36.3,29.99,SW,220,2.0,2.0,39,0.00,,,0.00,vanprod-2.5-rc3,2013-05-21 17:11:00,
2013-05-21 11:16:00,62.2,37.0,30.01,South,189,0.0,0.0,39,0.00,,,0.00,vanprod-2.5-rc3,2013-05-21 17:16:00,
2013-05-21 11:21:00,63.0,37.0,30.01,South,183,1.0,5.0,38,0.00,,,0.00,vanprod-2.5-rc3,2013-05-21 17:21:00,
2013-05-21 11:26:00,63.8,37.1,29.99,SW,230,0.0,0.0,37,0.00,,,0.00,vanprod-2.5-rc3,2013-05-21 17:26:00,
2013-05-21 11:31:00,64.1,35.2,30.00,SW,214,0.0,0.0,34,0.00,,,0.00,vanprod-2.5-rc3,2013-05-21 17:31:00,
2013-05-21 11:36:00,64.6,35.6,29.99,South,186,1.0,0.0,34,0.00,,,0.00,vanprod-2.5-rc3,2013-05-21 17:36:00,
2013-05-21 11:41:00,65.2,36.9,29.98,SSE,150,0.0,3.0,35,0.00,,,0.00,vanprod-2.5-rc3,2013-05-21 17:41:00,
2013-05-21 11:46:00,66.3,36.4,29.97,South,170,1.0,0.0,33,0.00,,,0.00,vanprod-2.5-rc3,2013-05-21 17:46:00,
2013-05-21 11:51:00,67.3,36.5,29.97,South,173,0.0,0.0,32,0.00,,,0.00,vanprod-2.5-rc3,2013-05-21 17:51:00,
2013-05-21 11:56:00,67.4,35.7,29.98,WNW,285,7.0,7.0,31,0.00,,,0.00,vanprod-2.5-rc3,2013-05-21 17:56:00,
2013-05-21 12:01:00,65.2,34.6,29.98,West,278,3.0,6.0,32,0.00,,,0.00,vanprod-2.5-rc3,2013-05-21 18:01:00,
2013-05-21 12:06:00,64.2,34.5,29.97,SW,225,2.0,3.0,33,0.00,,,0.00,vanprod-2.5-rc3,2013-05-21 18:06:00,
2013-05-21 12:11:00,65.2,35.4,29.98,WSW,257,5.0,5.0,33,0.00,,,0.00,vanprod-2.5-rc3,2013-05-21 18:11:00,
2013-05-21 12:16:00,66.3,34.8,29.98,West,271,5.0,6.0,31,0.00,,,0.00,vanprod-2.5-rc3,2013-05-21 18:16:00,
2013-05-21 12:21:00,66.5,35.0,29.96,WNW,292,6.0,6.0,31,0.00,,,0.00,vanprod-2.5-rc3,2013-05-21 18:21:00,
2013-05-21 12:26:00,65.7,35.8,29.97,WNW,296,3.0,6.0,33,0.00,,,0.00,vanprod-2.5-rc3,2013-05-21 18:26:00,
2013-05-21 12:31:00,64.8,34.3,29.96,SW,231,3.0,0.0,32,0.00,,,0.00,vanprod-2.5-rc3,2013-05-21 18:31:00,
2013-05-21 12:36:00,65.0,35.2,29.96,West,271,5.0,8.0,33,0.00,,,0.00,vanprod-2.5-rc3,2013-05-21 18:36:00,
2013-05-21 12:41:00,65.8,35.1,29.96,West,268,6.0,8.0,32,0.00,,,0.00,vanprod-2.5-rc3,2013-05-21 18:41:00,
2013-05-21 12:46:00,65.4,34.8,29.96,West,264,3.0,3.0,32,0.00,,,0.00,vanprod-2.5-rc3,2013-05-21 18:46:00,
2013-05-21 12:51:00,65.5,35.7,29.96,West,260,0.0,0.0,33,0.00,,,0.00,vanprod-2.5-rc3,2013-05-21 18:51:00,
2013-05-21 12:56:00,66.6,35.0,29.95,SW,232,4.0,0.0,31,0.00,,,0.00,vanprod-2.5-rc3,2013-05-21 18:56:00,
2013-05-21 13:01:00,67.6,35.9,29.94,SW,221,6.0,14.0,31,0.00,,,0.00,vanprod-2.5-rc3,2013-05-21 19:01:00,
2013-05-21 13:06:00,68.1,35.5,29.94,WSW,249,6.0,7.0,30,0.00,,,0.00,vanprod-2.5-rc3,2013-05-21 19:06:00,
2013-05-21 13:11:00,67.5,35.0,29.94,West,263,3.0,6.0,30,0.00,,,0.00,vanprod-2.5-rc3,2013-05-21 19:11:00,
2013-05-21 13:16:00,67.7,35.2,29.94,West,263,8.0,8.0,30,0.00,,,0.00,vanprod-2.5-rc3,2013-05-21 19:16:00,
2013-05-21 13:21:00,67.1,33.8,29.94,WSW,257,1.0,0.0,29,0.00,,,0.00,vanprod-2.5-rc3,2013-05-21 19:21:00,
2013-05-21 13:26:00,66.9,36.1,29.94,SW,227,10.0,10.0,32,0.00,,,0.00,vanprod-2.5-rc3,2013-05-21 19:26:00,
2013-05-21 13:31:00,68.1,34.7,29.93,WSW,244,12.0,13.0,29,0.00,,,0.00,vanprod-2.5-rc3,2013-05-21 19:31:00,
2013-05-21 13:36:00,69.0,35.4,29.93,WSW,250,9.0,9.0,29,0.00,,,0.00,vanprod-2.5-rc3,2013-05-21 19:36:00,
2013-05-21 13:41:00,69.1,34.7,29.93,WSW,257,8.0,8.0,28,0.00,,,0.00,vanprod-2.5-rc3,2013-05-21 19:41:00,
2013-05-21 13:46:00,67.6,34.2,29.93,WSW,256,12.0,15.0,29,0.00,,,0.00,vanprod-2.5-rc3,2013-05-21 19:46:00,
2013-05-21 13:51:00,66.2,33.9,29.94,West,261,12.0,13.0,30,0.00,,,0.00,vanprod-2.5-rc3,2013-05-21 19:51:00,
2013-05-21 13:56:00,65.8,33.5,29.93,WSW,256,13.0,15.0,30,0.00,,,0.00,vanprod-2.5-rc3,2013-05-21 19:56:00,
2013-05-21 14:01:00,65.2,33.8,29.92,West,265,11.0,13.0,31,0.00,,,0.00,vanprod-2.5-rc3,2013-05-21 20:01:00,
2013-05-21 14:06:00,65.1,33.7,29.92,West,259,12.0,14.0,31,0.00,,,0.00,vanprod-2.5-rc3,2013-05-21 20:06:00,
2013-05-21 14:11:00,65.6,34.2,29.93,West,266,13.0,13.0,31,0.00,,,0.00,vanprod-2.5-rc3,2013-05-21 20:11:00,
2013-05-21 14:16:00,65.4,34.0,29.92,West,262,10.0,11.0,31,0.00,,,0.00,vanprod-2.5-rc3,2013-05-21 20:16:00,
2013-05-21 14:21:00,65.7,33.4,29.93,WSW,258,8.0,8.0,30,0.00,,,0.00,vanprod-2.5-rc3,2013-05-21 20:21:00,
2013-05-21 14:26:00,66.8,34.4,29.93,West,279,12.0,12.0,30,0.00,,,0.00,vanprod-2.5-rc3,2013-05-21 20:26:00,
2013-05-21 14:31:00,66.4,34.1,29.93,West,270,10.0,14.0,30,0.00,,,0.00,vanprod-2.5-rc3,2013-05-21 20:31:00,
2013-05-21 14:36:00,66.3,34.0,29.93,WNW,282,8.0,8.0,30,0.00,,,0.00,vanprod-2.5-rc3,2013-05-21 20:36:00,
2013-05-21 14:41:00,68.3,36.5,29.91,West,273,2.0,6.0,31,0.00,,,0.00,vanprod-2.5-rc3,2013-05-21 20:41:00,
2013-05-21 14:46:00,69.8,36.1,29.92,West,264,1.0,10.0,29,0.00,,,0.00,vanprod-2.5-rc3,2013-05-21 20:46:00,
2013-05-21 14:51:00,70.7,36.0,29.91,SW,214,9.0,10.0,28,0.00,,,0.00,vanprod-2.5-rc3,2013-05-21 20:51:00,
2013-05-21 14:56:00,71.5,35.8,29.90,WSW,256,14.0,17.0,27,0.00,,,0.00,vanprod-2.5-rc3,2013-05-21 20:56:00,
2013-05-21 15:01:00,70.6,35.9,29.91,WSW,240,3.0,3.0,28,0.00,,,0.00,vanprod-2.5-rc3,2013-05-21 21:01:00,
2013-05-21 15:06:00,71.1,34.5,29.91,West,265,13.0,13.0,26,0.00,,,0.00,vanprod-2.5-rc3,2013-05-21 21:06:00,
2013-05-21 15:11:00,70.5,34.0,29.91,West,266,9.0,13.0,26,0.00,,,0.00,vanprod-2.5-rc3,2013-05-21 21:11:00,
2013-05-21 15:16:00,70.1,34.6,29.90,West,271,12.0,13.0,27,0.00,,,0.00,vanprod-2.5-rc3,2013-05-21 21:16:00,
2013-05-21 15:21:00,70.8,36.1,29.91,West,276,9.0,13.0,28,0.00,,,0.00,vanprod-2.5-rc3,2013-05-21 21:21:00,
2013-05-21 15:26:00,71.0,36.3,29.90,SW,234,2.0,12.0,28,0.00,,,0.00,vanprod-2.5-rc3,2013-05-21 21:26:00,
2013-05-21 15:31:00,70.9,35.3,29.90,WSW,256,10.0,10.0,27,0.00,,,0.00,vanprod-2.5-rc3,2013-05-21 21:31:00,
2013-05-21 15:36:00,70.6,35.0,29.89,WNW,296,9.0,9.0,27,0.00,,,0.00,vanprod-2.5-rc3,2013-05-21 21:36:00,
2013-05-21 15:41:00,69.8,34.3,29.88,WSW,249,12.0,12.0,27,0.00,,,0.00,vanprod-2.5-rc3,2013-05-21 21:41:00,
2013-05-21 15:46:00,69.1,33.7,29.88,West,264,8.0,10.0,27,0.00,,,0.00,vanprod-2.5-rc3,2013-05-21 21:46:00,
2013-05-21 15:51:00,70.2,34.7,29.88,West,259,3.0,10.0,27,0.00,,,0.00,vanprod-2.5-rc3,2013-05-21 21:51:00,
2013-05-21 15:56:00,69.3,34.8,29.88,West,272,10.0,10.0,28,0.00,,,0.00,vanprod-2.5-rc3,2013-05-21 21:56:00,
2013-05-21 16:01:00,70.4,34.9,29.88,WSW,237,12.0,12.0,27,0.00,,,0.00,vanprod-2.5-rc3,2013-05-21 22:01:00,
2013-05-21 16:06:00,71.3,35.6,29.89,WNW,283,10.0,11.0,27,0.00,,,0.00,vanprod-2.5-rc3,2013-05-21 22:06:00,
2013-05-21 16:11:00,71.7,34.0,29.89,WSW,257,15.0,15.0,25,0.00,,,0.00,vanprod-2.5-rc3,2013-05-21 22:11:00,
2013-05-21 16:16:00,71.5,34.8,29.88,West,261,10.0,10.0,26,0.00,,,0.00,vanprod-2.5-rc3,2013-05-21 22:16:00,
2013-05-21 16:21:00,71.3,35.6,29.88,WSW,256,2.0,2.0,27,0.00,,,0.00,vanprod-2.5-rc3,2013-05-21 22:21:00,
2013-05-21 16:26:00,71.4,35.7,29.88,West,280,9.0,10.0,27,0.00,,,0.00,vanprod-2.5-rc3,2013-05-21 22:26:00,
2013-05-21 16:31:00,71.7,34.0,29.88,WSW,256,14.0,14.0,25,0.00,,,0.00,vanprod-2.5-rc3,2013-05-21 22:31:00,
2013-05-21 16:36:00,71.9,35.2,29.88,WNW,298,10.0,11.0,26,0.00,,,0.00,vanprod-2.5-rc3,2013-05-21 22:36:00,
2013-05-21 16:41:00,71.6,33.9,29.88,WSW,248,9.0,9.0,25,0.00,,,0.00,vanprod-2.5-rc3,2013-05-21 22:41:00,
2013-05-21 16:46:00,71.8,34.1,29.87,WNW,287,3.0,0.0,25,0.00,,,0.00,vanprod-2.5-rc3,2013-05-21 22:46:00,
2013-05-21 16:51:00,70.6,33.1,29.87,West,259,10.0,14.0,25,0.00,,,0.00,vanprod-2.5-rc3,2013-05-21 22:51:00,
2013-05-21 16:56:00,69.2,33.8,29.86,West,261,11.0,11.0,27,0.00,,,0.00,vanprod-2.5-rc3,2013-05-21 22:56:00,
2013-05-21 17:01:00,69.4,34.9,29.86,WNW,298,12.0,13.0,28,0.00,,,0.00,vanprod-2.5-rc3,2013-05-21 23:01:00,
2013-05-21 17:06:00,69.9,35.3,29.87,NW,318,9.0,10.0,28,0.00,,,0.00,vanprod-2.5-rc3,2013-05-21 23:06:00,
2013-05-21 17:11:00,70.5,36.7,29.87,NW,319,9.0,16.0,29,0.00,,,0.00,vanprod-2.5-rc3,2013-05-21 23:11:00,
2013-05-21 17:16:00,71.2,36.5,29.87,NNW,333,10.0,10.0,28,0.00,,,0.00,vanprod-2.5-rc3,2013-05-21 23:16:00,
2013-05-21 17:21:00,70.3,35.7,29.86,North,357,11.0,12.0,28,0.00,,,0.00,vanprod-2.5-rc3,2013-05-21 23:21:00,
2013-05-21 17:26:00,69.7,36.1,29.87,North,349,7.0,7.0,29,0.00,,,0.00,vanprod-2.5-rc3,2013-05-21 23:26:00,
2013-05-21 17:31:00,70.9,35.3,29.86,NW,326,0.0,0.0,27,0.00,,,0.00,vanprod-2.5-rc3,2013-05-21 23:31:00,
2013-05-21 17:36:00,71.8,36.1,29.85,WNW,289,1.0,0.0,27,0.00,,,0.00,vanprod-2.5-rc3,2013-05-21 23:36:00,
2013-05-21 17:41:00,72.5,36.7,29.85,NW,309,8.0,8.0,27,0.00,,,0.00,vanprod-2.5-rc3,2013-05-21 23:41:00,
2013-05-21 17:46:00,72.0,35.3,29.85,WNW,290,1.0,4.0,26,0.00,,,0.00,vanprod-2.5-rc3,2013-05-21 23:46:00,
2013-05-21 17:51:00,72.2,36.4,29.84,NNW,341,6.0,6.0,27,0.00,,,0.00,vanprod-2.5-rc3,2013-05-21 23:51:00,
2013-05-21 17:56:00,72.3,36.5,29.84,NW,319,4.0,5.0,27,0.00,,,0.00,vanprod-2.5-rc3,2013-05-21 23:56:00,
2013-05-21 18:01:00,71.9,36.1,29.84,NNW,329,1.0,0.0,27,0.00,,,0.00,vanprod-2.5-rc3,2013-05-22 00:01:00,
2013-05-21 18:06:00,71.2,34.6,29.86,NNW,332,3.0,4.0,26,0.00,,,0.00,vanprod-2.5-rc3,2013-05-22 00:06:00,
2013-05-21 18:11:00,70.0,35.4,29.86,NW,324,0.0,1.0,28,0.00,,,0.00,vanprod-2.5-rc3,2013-05-22 00:11:00,
2013-05-21 18:16:00,68.5,34.1,29.84,WNW,297,6.0,6.0,28,0.00,,,0.00,vanprod-2.5-rc3,2013-05-22 00:16:00,
2013-05-21 18:21:00,67.8,34.4,29.84,WNW,289,5.0,6.0,29,0.00,,,0.00,vanprod-2.5-rc3,2013-05-22 00:21:00,
2013-05-21 18:26:00,67.6,33.4,29.84,West,263,5.0,5.0,28,0.00,,,0.00,vanprod-2.5-rc3,2013-05-22 00:26:00,
2013-05-21 18:31:00,68.3,34.0,29.84,West,280,5.0,5.0,28,0.00,,,0.00,vanprod-2.5-rc3,2013-05-22 00:31:00,
2013-05-21 18:36:00,68.9,33.6,29.83,West,274,6.0,7.0,27,0.00,,,0.00,vanprod-2.5-rc3,2013-05-22 00:36:00,
2013-05-21 18:41:00,68.8,34.4,29.84,West,264,1.0,1.0,28,0.00,,,0.00,vanprod-2.5-rc3,2013-05-22 00:41:00,
2013-05-21 18:46:00,68.2,33.9,29.84,West,267,0.0,1.0,28,0.00,,,0.00,vanprod-2.5-rc3,2013-05-22 00:46:00,
2013-05-21 18:51:00,67.7,34.3,29.84,WSW,255,0.0,0.0,29,0.00,,,0.00,vanprod-2.5-rc3,2013-05-22 00:51:00,
2013-05-21 18:56:00,67.1,34.7,29.85,West,266,0.0,0.0,30,0.00,,,0.00,vanprod-2.5-rc3,2013-05-22 00:56:00,
2013-05-21 19:01:00,66.8,34.4,29.83,West,267,0.0,1.0,30,0.00,,,0.00,vanprod-2.5-rc3,2013-05-22 01:01:00,
2013-05-21 19:06:00,67.4,33.2,29.83,West,262,4.0,9.0,28,0.00,,,0.00,vanprod-2.5-rc3,2013-05-22 01:06:00,
2013-05-21 19:11:00,68.6,35.1,29.85,SSW,208,11.0,14.0,29,0.00,,,0.00,vanprod-2.5-rc3,2013-05-22 01:11:00,
2013-05-21 19:16:00,69.5,35.0,29.83,SW,231,3.0,0.0,28,0.00,,,0.00,vanprod-2.5-rc3,2013-05-22 01:16:00,
2013-05-21 19:21:00,69.2,32.9,29.84,West,275,4.0,0.0,26,0.00,,,0.00,vanprod-2.5-rc3,2013-05-22 01:21:00,
2013-05-21 19:26:00,69.0,33.7,29.85,WSW,247,10.0,10.0,27,0.00,,,0.00,vanprod-2.5-rc3,2013-05-22 01:26:00,
2013-05-21 19:31:00,68.2,33.9,29.85,WSW,251,1.0,3.0,28,0.00,,,0.00,vanprod-2.5-rc3,2013-05-22 01:31:00,
2013-05-21 19:36:00,67.3,33.1,29.84,WSW,240,1.0,1.0,28,0.00,,,0.00,vanprod-2.5-rc3,2013-05-22 01:36:00,
2013-05-21 19:41:00,66.5,33.3,29.84,WSW,255,1.0,4.0,29,0.00,,,0.00,vanprod-2.5-rc3,2013-05-22 01:41:00,
2013-05-21 19:46:00,65.9,33.6,29.84,WSW,255,1.0,1.0,30,0.00,,,0.00,vanprod-2.5-rc3,2013-05-22 01:46:00,
2013-05-21 19:51:00,65.3,33.9,29.85,SW,225,0.0,0.0,31,0.00,,,0.00,vanprod-2.5-rc3,2013-05-22 01:51:00,
2013-05-21 19:56:00,64.8,33.5,29.84,SW,228,0.0,0.0,31,0.00,,,0.00,vanprod-2.5-rc3,2013-05-22 01:56:00,
2013-05-21 20:01:00,64.2,33.8,29.84,SW,220,0.0,0.0,32,0.00,,,0.00,vanprod-2.5-rc3,2013-05-22 02:01:00,
2013-05-21 20:06:00,63.9,34.3,29.85,SSW,206,0.0,0.0,33,0.00,,,0.00,vanprod-2.5-rc3,2013-05-22 02:06:00,
2013-05-21 20:11:00,63.6,34.7,29.85,SSW,201,0.0,0.0,34,0.00,,,0.00,vanprod-2.5-rc3,2013-05-22 02:11:00,
2013-05-21 20:16:00,63.3,34.5,29.84,SSW,200,0.0,0.0,34,0.00,,,0.00,vanprod-2.5-rc3,2013-05-22 02:16:00,
2013-05-21 20:21:00,63.0,33.5,29.84,SSW,202,0.0,0.0,33,0.00,,,0.00,vanprod-2.5-rc3,2013-05-22 02:21:00,
2013-05-21 20:26:00,62.9,33.4,29.84,SSW,202,0.0,0.0,33,0.00,,,0.00,vanprod-2.5-rc3,2013-05-22 02:26:00,
2013-05-21 20:31:00,62.9,33.4,29.84,SSW,206,0.0,0.0,33,0.00,,,0.00,vanprod-2.5-rc3,2013-05-22 02:31:00,
2013-05-21 20:36:00,62.8,33.3,29.84,SSW,195,0.0,0.0,33,0.00,,,0.00,vanprod-2.5-rc3,2013-05-22 02:36:00,
2013-05-21 20:41:00,62.6,33.1,29.84,SSW,197,0.0,0.0,33,0.00,,,0.00,vanprod-2.5-rc3,2013-05-22 02:41:00,
2013-05-21 20:46:00,62.6,33.1,29.84,SSW,196,0.0,0.0,33,0.00,,,0.00,vanprod-2.5-rc3,2013-05-22 02:46:00,
2013-05-21 20:51:00,62.5,33.0,29.84,SSW,196,0.0,0.0,33,0.00,,,0.00,vanprod-2.5-rc3,2013-05-22 02:51:00,
2013-05-21 20:56:00,62.4,33.7,29.84,SSW,197,0.0,0.0,34,0.00,,,0.00,vanprod-2.5-rc3,2013-05-22 02:56:00,
2013-05-21 21:01:00,62.2,33.5,29.84,SSW,194,0.0,0.0,34,0.00,,,0.00,vanprod-2.5-rc3,2013-05-22 03:01:00,
2013-05-21 21:06:00,62.1,32.7,29.84,SSW,194,0.0,0.0,33,0.00,,,0.00,vanprod-2.5-rc3,2013-05-22 03:06:00,
2013-05-21 21:11:00,62.0,33.3,29.84,SSW,194,0.0,0.0,34,0.00,,,0.00,vanprod-2.5-rc3,2013-05-22 03:11:00,
2013-05-21 21:16:00,61.7,33.1,29.84,SSW,194,0.0,0.0,34,0.00,,,0.00,vanprod-2.5-rc3,2013-05-22 03:16:00,
2013-05-21 21:21:00,61.5,32.9,29.84,SSW,194,0.0,0.0,34,0.00,,,0.00,vanprod-2.5-rc3,2013-05-22 03:21:00,
2013-05-21 21:26:00,61.1,33.3,29.84,SSW,194,0.0,0.0,35,0.00,,,0.00,vanprod-2.5-rc3,2013-05-22 03:26:00,
2013-05-21 21:31:00,60.6,32.8,29.84,SSW,193,0.0,0.0,35,0.00,,,0.00,vanprod-2.5-rc3,2013-05-22 03:31:00,
2013-05-21 21:36:00,60.2,32.5,29.86,SSW,194,0.0,0.0,35,0.00,,,0.00,vanprod-2.5-rc3,2013-05-22 03:36:00,
2013-05-21 21:41:00,60.1,32.4,29.86,SSW,193,0.0,0.0,35,0.00,,,0.00,vanprod-2.5-rc3,2013-05-22 03:41:00,
2013-05-21 21:46:00,60.0,33.0,29.86,SSW,194,0.0,0.0,36,0.00,,,0.00,vanprod-2.5-rc3,2013-05-22 03:46:00,
2013-05-21 21:51:00,60.0,33.0,29.86,SSW,194,0.0,0.0,36,0.00,,,0.00,vanprod-2.5-rc3,2013-05-22 03:51:00,
2013-05-21 21:56:00,59.8,33.5,29.86,SSW,193,0.0,0.0,37,0.00,,,0.00,vanprod-2.5-rc3,2013-05-22 03:56:00,
2013-05-21 22:01:00,59.1,32.9,29.86,SSW,192,0.0,0.0,37,0.00,,,0.00,vanprod-2.5-rc3,2013-05-22 04:01:00,
2013-05-21 22:06:00,58.8,33.3,29.87,SSE,149,0.0,0.0,38,0.00,,,0.00,vanprod-2.5-rc3,2013-05-22 04:06:00,
2013-05-21 22:11:00,58.1,33.3,29.85,East,82,0.0,1.0,39,0.00,,,0.00,vanprod-2.5-rc3,2013-05-22 04:11:00,
2013-05-21 22:16:00,57.6,32.8,29.85,East,94,0.0,0.0,39,0.00,,,0.00,vanprod-2.5-rc3,2013-05-22 04:16:00,
2013-05-21 22:21:00,57.2,33.1,29.85,East,94,0.0,1.0,40,0.00,,,0.00,vanprod-2.5-rc3,2013-05-22 04:21:00,
2013-05-21 22:26:00,56.9,32.2,29.85,ESE,102,0.0,1.0,39,0.00,,,0.00,vanprod-2.5-rc3,2013-05-22 04:26:00,
2013-05-21 22:31:00,56.8,32.8,29.86,East,98,0.0,1.0,40,0.00,,,0.00,vanprod-2.5-rc3,2013-05-22 04:31:00,
2013-05-21 22:36:00,56.8,33.4,29.86,East,94,0.0,1.0,41,0.00,,,0.00,vanprod-2.5-rc3,2013-05-22 04:36:00,
2013-05-21 22:41:00,56.5,33.1,29.86,ESE,102,0.0,1.0,41,0.00,,,0.00,vanprod-2.5-rc3,2013-05-22 04:41:00,
2013-05-21 22:46:00,56.4,33.6,29.87,East,97,0.0,1.0,42,0.00,,,0.00,vanprod-2.5-rc3,2013-05-22 04:46:00,
2013-05-21 22:51:00,56.2,33.4,29.87,East,98,0.0,0.0,42,0.00,,,0.00,vanprod-2.5-rc3,2013-05-22 04:51:00,
2013-05-21 22:56:00,56.0,33.3,29.87,East,101,0.0,0.0,42,0.00,,,0.00,vanprod-2.5-rc3,2013-05-22 04:56:00,
2013-05-21 23:01:00,55.6,32.9,29.85,ENE,74,0.0,0.0,42,0.00,,,0.00,vanprod-2.5-rc3,2013-05-22 05:01:00,
2013-05-21 23:06:00,54.6,32.6,29.87,NE,50,0.0,0.0,43,0.00,,,0.00,vanprod-2.5-rc3,2013-05-22 05:06:00,
2013-05-21 23:11:00,54.2,34.4,29.87,ENE,61,0.0,1.0,47,0.00,,,0.00,vanprod-2.5-rc3,2013-05-22 05:11:00,
2013-05-21 23:16:00,53.9,33.6,29.87,East,81,0.0,1.0,46,0.00,,,0.00,vanprod-2.5-rc3,2013-05-22 05:16:00,
2013-05-21 23:21:00,53.5,33.8,29.87,East,84,0.0,0.0,47,0.00,,,0.00,vanprod-2.5-rc3,2013-05-22 05:21:00,
2013-05-21 23:26:00,53.2,34.0,29.86,East,101,0.0,1.0,48,0.00,,,0.00,vanprod-2.5-rc3,2013-05-22 05:26:00,
2013-05-21 23:31:00,53.3,34.1,29.86,East,99,0.0,0.0,48,0.00,,,0.00,vanprod-2.5-rc3,2013-05-22 05:31:00,
2013-05-21 23:36:00,53.3,34.1,29.86,East,96,0.0,0.0,48,0.00,,,0.00,vanprod-2.5-rc3,2013-05-22 05:36:00,
2013-05-21 23:41:00,53.2,34.0,29.86,ESE,106,0.0,0.0,48,0.00,,,0.00,vanprod-2.5-rc3,2013-05-22 05:41:00,
2013-05-21 23:46:00,53.2,33.5,29.86,East,94,0.0,0.0,47,0.00,,,0.00,vanprod-2.5-rc3,2013-05-22 05:46:00,
2013-05-21 23:51:00,53.2,33.5,29.86,ENE,65,0.0,0.0,47,0.00,,,0.00,vanprod-2.5-rc3,2013-05-22 05:51:00,
2013-05-21 23:56:00,53.0,33.9,29.86,ENE,74,0.0,0.0,48,0.00,,,0.00,vanprod-2.5-rc3,2013-05-22 05:56:00,